This demonstration page uses our WeatherBlox Daily Observations layout. Learn more.

Left ArrowRight Arrow

36.17497, -115.13722

Hourly Observations for September 25, 2017

Temp ( °F °C ) Dew Point ( °F °C ) Humidity (%) Winds ( mph kmh ) Pressure ( in mb ) Visibility ( mi km ) Precip ( " mm )
12:53 am 00:53 Clear 60 15.6 22 -5.6 23 23 NNW 6 9 29.99 1016 10 16 0.00 0.00
1:53 am 01:53 Clear 60 15.6 20 -6.7 21 21 NNW 8 13 29.99 1016 10 16 0.00 0.00
2:53 am 02:53 Clear 61 16.1 19 -7.2 20 20 NNW 10 17 29.98 1015 10 16 0.00 0.00
3:53 am 03:53 Clear 61 16.1 22 -5.6 22 22 NNW 10 17 29.97 1015 10 16 0.00 0.00
4:53 am 04:53 Clear 61 16.1 24 -4.4 24 24 NNW 10 17 29.97 1015 10 16 0.00 0.00
5:53 am 05:53 Clear 60 15.6 25 -3.9 26 26 N 13 20 29.98 1015 10 16 0.00 0.00
6:53 am 06:53 Sunny 60 15.6 25 -3.9 26 26 N 13 20 30.00 1016 10 16 0.00 0.00
7:53 am 07:53 Sunny 63 17.2 26 -3.3 25 25 N 17 28 30.01 1016 10 16 0.00 0.00
8:53 am 08:53 Sunny 66 18.9 26 -3.3 22 22 N 10 17 30.01 1016 10 16 0.00 0.00
9:53 am 09:53 Sunny with Light Rain 70 21.1 26 -3.3 19 19 N 16 26 30.00 1016 10 16 0.00 0.03
10:53 am 10:53 Sunny with Light Rain 72 22.2 25 -3.9 17 17 NNW 10 17 29.99 1016 10 16 0.00 0.03
11:53 am 11:53 Sunny 73 22.8 25 -3.9 17 17 NE 7 11 29.97 1015 10 16 0.00 0.03
12:53 pm 12:53 Sunny 74 23.3 25 -3.9 16 16 ENE 7 11 29.95 1014 10 16 0.00 0.00
1:53 pm 13:53 Sunny 75 23.9 24 -4.4 15 15 Calm 29.92 1013 10 16 0.00 0.00
2:53 pm 14:53 Sunny 78 25.6 23 -5 13 13 N 9 15 29.89 1012 10 16 0.00 0.00
3:53 pm 15:53 Sunny 77 25 22 -5.6 13 13 VRB 6 9 29.88 1012 10 16 0.00 0.00
4:53 pm 16:53 Sunny 78 25.6 22 -5.6 12 12 E 5 7 29.86 1011 10 16 0.00 0.00
5:53 pm 17:53 Sunny 77 25 20 -6.7 12 12 NW 15 24 29.85 1011 10 16 0.00 0.00
6:53 pm 18:53 Clear 75 23.9 22 -5.6 14 14 ENE 8 13 29.86 1011 10 16 0.00 0.00
7:53 pm 19:53 Clear 73 22.8 24 -4.4 16 16 N 3 6 29.88 1012 10 16 0.00 0.00
8:53 pm 20:53 Clear 71 21.7 23 -5 16 16 NNW 7 11 29.88 1012 10 16 0.00 0.00
9:53 pm 21:53 Clear 70 21.1 24 -4.4 18 18 NNW 8 13 29.88 1012 10 16 0.00 0.00
10:53 pm 22:53 Clear 68 20 24 -4.4 19 19 N 6 9 29.90 1013 10 16 0.00 0.00
11:53 pm 23:53 Clear 67 19.4 25 -3.9 20 20 WNW 5 7 29.91 1013 10 16 0.00 0.00

Powered by AerisWeather